{"data":{"norad_id":63243,"epoch":"2026-09-21T22:37:43.562784Z","epoch_age_seconds":95339,"freshness":"FRESH","line1":"1 63243U 25052AK  26264.94286531  .00004766  00000+0  15758-3 0  9991","line2":"2 63243  97.3748 159.4023 0005919 118.1378 242.0462 15.31824203 84826","mean_motion":15.31824203,"eccentricity":0.0005919,"inclination_deg":97.3748,"raan_deg":159.4023,"arg_perigee_deg":118.1378,"mean_anomaly_deg":242.0462,"bstar":0.00015758,"rev_number":8482,"period_min":94.005565206493,"perigee_km":466.31614640084,"apogee_km":474.42340872412,"semimajor_km":6848.5067775625,"source":"CELESTRAK","updated_at":"2026-09-22T09:00:29.058076Z"}}